Previsão horária em Cervinia

Hoje, 29 Julho, Quinta-feira

Tempo Temperatura Precipitação Vento Pressão Humidade
00:00 +15°C° 0 mm 1 m/s 673 mmHg 87%
01:00 +15°C° 0 mm 1 m/s 673 mmHg 85%
02:00 +14°C° 0 mm 1 m/s 673 mmHg 84%
03:00 +14°C° 0 mm 1 m/s 672 mmHg 83%
04:00 +15°C° 0 mm 1 m/s 673 mmHg 79%
05:00 +18°C° 0 mm 1 m/s 673 mmHg 74%
06:00 +19°C° 0 mm 1 m/s 674 mmHg 72%
07:00 +21°C° 0 mm 1 m/s 674 mmHg 64%
08:00 +22°C° 0 mm 1 m/s 674 mmHg 57%
09:00 +24°C° 0 mm 1 m/s 674 mmHg 49%
10:00 +25°C° 0 mm 1 m/s 674 mmHg 46%
11:00 +26°C° 0 mm 2 m/s 674 mmHg 44%
12:00 +27°C° 0 mm 2 m/s 674 mmHg 41%
13:00 +27°C° 0.1 mm 2 m/s 674 mmHg 43%
14:00 +27°C° 0.1 mm 2 m/s 673 mmHg 44%
15:00 +27°C° 0.1 mm 2 m/s 673 mmHg 46%
16:00 +26°C° 0.1 mm 2 m/s 673 mmHg 53%
17:00 +24°C° 0.1 mm 2 m/s 673 mmHg 60%
18:00 +23°C° 0.1 mm 1 m/s 673 mmHg 68%
19:00 +22°C° 0 mm 1 m/s 673 mmHg 68%
20:00 +20°C° 0 mm 1 m/s 673 mmHg 69%
21:00 +19°C° 0 mm 1 m/s 673 mmHg 69%
22:00 +19°C° 0 mm 1 m/s 673 mmHg 69%
23:00 +19°C° 0 mm 1 m/s 673 mmHg 68%

Amanhã, 30 Julho, Sexta-feira

Tempo Temperatura Precipitação Vento Pressão Humidade
00:00 +18°C° 0 mm 1 m/s 673 mmHg 68%
01:00 +18°C° 0.1 mm 1 m/s 673 mmHg 69%
02:00 +18°C° 0.1 mm 1 m/s 672 mmHg 70%
03:00 +18°C° 0.1 mm 2 m/s 672 mmHg 71%
04:00 +18°C° 0.1 mm 2 m/s 672 mmHg 71%
05:00 +20°C° 0.1 mm 1 m/s 673 mmHg 71%
06:00 +21°C° 0.1 mm 1 m/s 673 mmHg 72%
07:00 +23°C° 0 mm 1 m/s 673 mmHg 64%
08:00 +25°C° 0 mm 1 m/s 673 mmHg 55%
09:00 +26°C° 0 mm 1 m/s 673 mmHg 47%
10:00 +26°C° 0.4 mm 2 m/s 673 mmHg 51%
11:00 +26°C° 0.4 mm 2 m/s 672 mmHg 54%
12:00 +25°C° 0.4 mm 3 m/s 672 mmHg 58%
13:00 +24°C° 2.4 mm 2 m/s 672 mmHg 64%
14:00 +23°C° 2.4 mm 2 m/s 672 mmHg 70%
15:00 +22°C° 2.4 mm 1 m/s 672 mmHg 76%
16:00 +22°C° 0.4 mm 1 m/s 672 mmHg 77%
17:00 +22°C° 0.4 mm 1 m/s 672 mmHg 78%
18:00 +22°C° 0.4 mm 1 m/s 671 mmHg 78%
19:00 +21°C° 0.7 mm 1 m/s 671 mmHg 80%
20:00 +19°C° 0.7 mm 2 m/s 671 mmHg 82%
21:00 +18°C° 0.7 mm 2 m/s 671 mmHg 84%
22:00 +18°C° 0.4 mm 2 m/s 671 mmHg 85%
23:00 +18°C° 0.4 mm 2 m/s 671 mmHg 85%

Depois de amanhã, 31 Julho, Sábado

Tempo Temperatura Precipitação Vento Pressão Humidade
00:00 +17°C° 0.4 mm 2 m/s 671 mmHg 85%
01:00 +17°C° 0.1 mm 2 m/s 671 mmHg 84%
02:00 +17°C° 0.1 mm 2 m/s 670 mmHg 83%
03:00 +16°C° 0.1 mm 2 m/s 670 mmHg 82%
04:00 +17°C° 0 mm 2 m/s 670 mmHg 80%
05:00 +19°C° 0 mm 1 m/s 670 mmHg 77%
06:00 +20°C° 0 mm 1 m/s 670 mmHg 75%
07:00 +22°C° 0 mm 1 m/s 670 mmHg 66%
08:00 +23°C° 0 mm 1 m/s 670 mmHg 58%
09:00 +25°C° 0 mm 2 m/s 671 mmHg 50%
10:00 +25°C° 0.1 mm 2 m/s 670 mmHg 48%
11:00 +26°C° 0.1 mm 2 m/s 670 mmHg 45%
12:00 +27°C° 0.1 mm 2 m/s 670 mmHg 43%
13:00 +26°C° 0.6 mm 2 m/s 670 mmHg 50%
14:00 +25°C° 0.6 mm 2 m/s 669 mmHg 58%
15:00 +24°C° 0.6 mm 2 m/s 669 mmHg 65%
16:00 +21°C° 2.1 mm 2 m/s 669 mmHg 72%
17:00 +20°C° 2.1 mm 2 m/s 668 mmHg 79%
18:00 +19°C° 2.1 mm 1 m/s 668 mmHg 86%
19:00 +19°C° 0.3 mm 1 m/s 668 mmHg 87%
20:00 +18°C° 0.3 mm 1 m/s 668 mmHg 88%
21:00 +16°C° 0.3 mm 1 m/s 668 mmHg 89%
22:00 +16°C° 0.7 mm 1 m/s 668 mmHg 90%
23:00 +16°C° 0.7 mm 1 m/s 668 mmHg 91%

1 Agosto, Domingo

Tempo Temperatura Precipitação Vento Pressão Humidade
00:00 +16°C° 0.7 mm 1 m/s 667 mmHg 92%
01:00 +15°C° 0.9 mm 1 m/s 667 mmHg 92%
02:00 +15°C° 0.9 mm 1 m/s 667 mmHg 92%
03:00 +15°C° 0.9 mm 1 m/s 667 mmHg 92%
04:00 +15°C° 0.3 mm 1 m/s 667 mmHg 91%
05:00 +15°C° 0.3 mm 1 m/s 667 mmHg 91%
06:00 +16°C° 0.3 mm 1 m/s 667 mmHg 90%
07:00 +16°C° 0.7 mm 2 m/s 667 mmHg 88%
08:00 +16°C° 0.7 mm 2 m/s 667 mmHg 86%
09:00 +17°C° 0.7 mm 2 m/s 667 mmHg 85%
10:00 +17°C° 0.5 mm 2 m/s 667 mmHg 82%
11:00 +18°C° 0.5 mm 2 m/s 668 mmHg 79%
12:00 +18°C° 0.5 mm 2 m/s 668 mmHg 76%
13:00 +18°C° 0.4 mm 3 m/s 668 mmHg 77%
14:00 +17°C° 0.4 mm 3 m/s 669 mmHg 77%
15:00 +17°C° 0.4 mm 3 m/s 669 mmHg 77%
16:00 +16°C° 0.1 mm 3 m/s 669 mmHg 79%
17:00 +16°C° 0.1 mm 3 m/s 669 mmHg 81%
18:00 +14°C° 0.1 mm 3 m/s 669 mmHg 82%
19:00 +13°C° 0 mm 3 m/s 670 mmHg 84%
20:00 +12°C° 0 mm 3 m/s 670 mmHg 85%
21:00 +11°C° 0 mm 3 m/s 670 mmHg 86%
22:00 +11°C° 0 mm 3 m/s 670 mmHg 86%
23:00 +11°C° 0 mm 3 m/s 670 mmHg 85%

2 Agosto, Segunda-feira

Tempo Temperatura Precipitação Vento Pressão Humidade
00:00 +11°C° 0 mm 3 m/s 670 mmHg 85%
01:00 +11°C° 0 mm 3 m/s 670 mmHg 84%
02:00 +11°C° 0 mm 3 m/s 670 mmHg 84%
03:00 +10°C° 0 mm 3 m/s 670 mmHg 83%
04:00 +11°C° 0 mm 3 m/s 670 mmHg 81%
05:00 +13°C° 0 mm 2 m/s 671 mmHg 78%
06:00 +13°C° 0 mm 2 m/s 671 mmHg 76%
07:00 +15°C° 0 mm 2 m/s 671 mmHg 69%
08:00 +17°C° 0 mm 2 m/s 672 mmHg 62%
09:00 +19°C° 0 mm 1 m/s 672 mmHg 55%
10:00 +20°C° 0 mm 1 m/s 672 mmHg 52%
11:00 +21°C° 0 mm 2 m/s 672 mmHg 49%
12:00 +23°C° 0 mm 2 m/s 672 mmHg 46%
13:00 +23°C° 0.1 mm 2 m/s 672 mmHg 47%
14:00 +23°C° 0.1 mm 2 m/s 672 mmHg 48%
15:00 +23°C° 0.1 mm 2 m/s 672 mmHg 49%
16:00 +20°C° 0.1 mm 2 m/s 672 mmHg 58%
17:00 +19°C° 0.1 mm 2 m/s 672 mmHg 66%
18:00 +19°C° 0.1 mm 1 m/s 672 mmHg 75%
19:00 +18°C° 0 mm 1 m/s 673 mmHg 79%
20:00 +15°C° 0 mm 1 m/s 673 mmHg 83%
21:00 +14°C° 0 mm 1 m/s 673 mmHg 86%
22:00 +14°C° 0 mm 2 m/s 673 mmHg 85%
23:00 +14°C° 0 mm 2 m/s 673 mmHg 85%

3 Agosto, Terça-feira

Tempo Temperatura Precipitação Vento Pressão Humidade
00:00 +13°C° 0 mm 2 m/s 673 mmHg 84%
01:00 +13°C° 0 mm 2 m/s 673 mmHg 78%
02:00 +13°C° 0 mm 1 m/s 672 mmHg 73%
03:00 +13°C° 0 mm 1 m/s 672 mmHg 68%
04:00 +14°C° 0 mm 1 m/s 672 mmHg 66%
05:00 +15°C° 0 mm 1 m/s 672 mmHg 65%
06:00 +16°C° 0 mm 1 m/s 673 mmHg 63%
07:00 +18°C° 0.1 mm 1 m/s 673 mmHg 64%
08:00 +17°C° 0.1 mm 2 m/s 673 mmHg 66%
09:00 +18°C° 0.1 mm 2 m/s 673 mmHg 67%
10:00 +18°C° 1.5 mm 2 m/s 672 mmHg 72%
11:00 +17°C° 1.5 mm 2 m/s 672 mmHg 78%
12:00 +17°C° 1.5 mm 2 m/s 672 mmHg 83%
13:00 +17°C° 1.1 mm 2 m/s 672 mmHg 82%
14:00 +17°C° 1.1 mm 2 m/s 672 mmHg 81%
15:00 +17°C° 1.1 mm 2 m/s 672 mmHg 80%
16:00 +17°C° 1.1 mm 2 m/s 672 mmHg 82%
17:00 +16°C° 1.1 mm 2 m/s 672 mmHg 85%
18:00 +15°C° 1.1 mm 2 m/s 672 mmHg 88%
19:00 +15°C° 0.2 mm 2 m/s 673 mmHg 88%
20:00 +15°C° 0.2 mm 2 m/s 673 mmHg 88%
21:00 +15°C° 0.2 mm 2 m/s 673 mmHg 88%
22:00 +15°C° 0 mm 2 m/s 673 mmHg 87%
23:00 +15°C° 0 mm 2 m/s 672 mmHg 85%
Mostrar mais

Necessitamos do seu Consentimento

A Meteoprog e os seus Fornecedores de Serviços podem armazenar e aceder a dados pessoais como cookies, identificadores do dispositivo ou outras tecnologias semelhantes existentes no seu dispositivo e processar estes dados para personalizar conteúdos e anúncios, assim como funcionalidades nas redes sociais e análise de tráfego.

  • Armazenar e/ou aceder a informações no seu dispositivo

    Os cookies, identificadores do dispositivo ou outras informações podem ser armazenados ou acedidos no seu dispositivo, para os fins acima indicados.

  • Anúncios e conteúdos personalizados, medição de anúncios e conteúdos, dados sobre o público-alvo e desenvolvimento de produtos

    Os anúncios e os conteúdos podem ser personalizados com base num perfil. Podem ser adicionados dados adicionais para uma maior personalização dos anúncios e dos conteúdos. A eficácia dos anúncios e dos conteúdos pode ser medida. Podem ser obtidas informações sobre o público que visualizou os anúncios e os conteúdos. Estes dados podem ser usados para desenvolver ou melhorar sistemas, softwares ou a experiência do utilizador.

Ao clicar em "Eu concordo”, permitirá o uso de cookies, identificadores do dispositivo e web beacons mencionados ou outras tecnologias semelhantes. As configurações do navegador do seu dispositivo podem ser alteradas.

Para certos fins, podem ser invocados interesses legítimos ao invés de consentimento. Pode ler mais informação sobre este assunto na nossa Política de Privacidade e Cookies.